[[{"header":{"parameterUnit":"m.s-1","parameterCategory":1,"la1":30.2991,"la2":30.254,"lo1":-89.0895,"lo2":-89.0444,"dy":0.0017,"dx":0.0017,"nx":28,"ny":28,"refTime":"2024-07-05T21:00:00:Z","depth":0,"parameterNumber":2,"parameterNumberName":"U-component_of_WINDS"},"data":[0,0,0,0,0,0,0,0,0,0,0,0,0,0,0,0,0,0,0,0,0,0,0,0,0,0,0,0,0,0,0,0,0,0,0,0,0,0,0,0,0,0,0,0,0,0,0,0,0,0,0,0,0,0,0,0,0,0,0.5089,0.5089,0,0.5094,0.5094,0.5094,0.5054,0.5052,0.5051,0.505,0.506,0.5061,0.5062,0,0,0,0,0,0,0,0,0,0,0,0,0,0.5049,0.505,0.5089,0.5089,0.5089,0.5094,0.5094,0.5094,0.5054,0.5052,0.5051,0.505,0.5059,0.5061,0.5062,0,0,0,0,0,0,0,0,0,0,0,0,0,0.5061,0.505,0.5089,0.5069,0.5068,0.5094,0.5094,0.5094,0.5054,0.5052,0.5051,0.5049,0.5059,0.5061,0.5063,0.5109,0,0,0.5069,0.507,0,0,0,0,0,0,0,0,0.5061,0.5063,0.5072,0.5071,0.5069,0.5071,0.5083,0.5099,0.5055,0.5059,0.505,0.5048,0.5065,0.5067,0.5071,0.511,0.511,0.5069,0.507,0.5071,0.5071,0,0,0,0,0,0,0,0.506,0.5062,0.5091,0.5072,0.507,0.5062,0.5062,0.5086,0.5072,0.5059,0.5056,0.5057,0.5064,0.507,0.5071,0.511,0.5069,0.5071,0.5072,0.5073,0.5189,0.5191,0,0,0,0,0,0,0.5061,0.5062,0.5091,0.5091,0.506,0.5064,0.5064,0.5072,0.5072,0.507,0.5058,0.5055,0.5067,0.5069,0.5072,0.5127,0.5071,0.5073,0.5074,0.5187,0.5189,0.5191,0,0,0,0,0,0,0.506,0.5064,0.5091,0.5076,0.5078,0.5066,0.5076,0.5073,0.5079,0.5071,0.5069,0.5066,0.5066,0.5069,0.51,0.5127,0.5074,0.5075,0.5185,0.5188,0.519,0.5239,0,0,0,0,0,0,0.5059,0.5064,0.508,0.5076,0.5079,0.5118,0.5078,0.5075,0.5082,0.5077,0.5078,0.5077,0.5065,0.5098,0.5102,0.5129,0.5077,0.5182,0.5186,0.5189,0.5235,0.5243,0.525,0,0,0,0,0,0.5058,0.5094,0.5081,0.5085,0.5099,0.5119,0.5121,0.5106,0.5084,0.5101,0.5097,0.5077,0.5123,0.5101,0.5106,0.5134,0.5181,0.5185,0.5189,0.5231,0.5241,0.525,0,0,0,0,0,0,0.5103,0.5093,0.5079,0.5115,0.5118,0.5113,0.5134,0.5117,0.5127,0.5123,0.5104,0.5105,0.514,0.514,0.5115,0.518,0.5148,0.5154,0.5179,0.5188,0.5196,0.5196,0.5079,0,0,0,0,0,0.5117,0.5132,0.5124,0.5156,0.5158,0.5146,0.5154,0.5142,0.5145,0.5147,0.5144,0.515,0.5166,0.5177,0.5191,0.5234,0.5235,0.5256,0.5263,0.527,0.5275,0.53,0.531,0.5205,0.5205,0.5205,0,0,0.5146,0.5143,0.5154,0.5165,0.5166,0.5185,0.5148,0.5168,0.5182,0.515,0.518,0.5179,0.5183,0.5222,0.5238,0.5222,0.5304,0.5275,0.528,0.5282,0.5306,0.5316,0.5325,0.5208,0.5208,0.5207,0,0,0.5209,0.5207,0.5235,0.5237,0.5239,0.523,0.5237,0.5234,0.5232,0.5261,0.5238,0.5255,0.5282,0.5287,0.5293,0.5359,0.5342,0.5364,0.5404,0.5429,0.5437,0.5445,0.547,0.5479,0.5369,0.5369,0.5369,0,0.5246,0.5271,0.5252,0.5274,0.5281,0.5251,0.528,0.5283,0.5291,0.5297,0.5278,0.5313,0.5314,0.5354,0.537,0.5375,0.5384,0.5365,0.5437,0.5445,0.5451,0.5475,0.5485,0.5372,0.5372,0.5372,0.5371,0,0.5317,0.5335,0.5357,0.5364,0.5373,0.5399,0.5385,0.5396,0.5383,0.5378,0.5409,0.5409,0.5423,0.5432,0.5419,0.547,0.5461,0.544,0.5409,0.5464,0.5487,0.5496,0.5376,0.5375,0.5374,0.5374,0,0,0.5409,0.5405,0.5413,0.5417,0.5417,0.5431,0.5457,0.5469,0.5481,0.5487,0.5509,0.5533,0.5514,0.5521,0.5509,0.5531,0.5586,0.5508,0.5508,0.5524,0.5645,0.5661,0.5672,0.5573,0.5575,0.5576,0.5645,0,0.5472,0.5513,0.5497,0.5541,0.5559,0.5531,0.5553,0.5557,0.5552,0.5568,0.5563,0.5581,0.5554,0.5558,0.5578,0.5575,0.561,0.5569,0.5596,0.5597,0.5598,0.5684,0.5701,0.5766,0.5653,0.5655,0.5656,0,0.5551,0.556,0.5605,0.5603,0.561,0.563,0.5642,0.5656,0.566,0.5655,0.5664,0.5647,0.5674,0.5641,0.5679,0.5652,0.5662,0.5662,0.5664,0.5668,0.5631,0.5692,0.5786,0.5797,0.5669,0.5668,0.5667,0,0.5616,0.5639,0.5669,0.5673,0.5671,0.5686,0.5687,0.5689,0.5698,0.5709,0.5715,0.5729,0.5737,0.5749,0.5738,0.5714,0.5778,0.5743,0.5777,0.5777,0.5793,0.5792,0.5892,0.5796,0.5796,0.5796,0.5796,0,0.569,0.5719,0.5699,0.5718,0.5751,0.5732,0.5766,0.5763,0.5765,0.5785,0.5762,0.5781,0.5764,0.5782,0.5774,0.5808,0.5811,0.5809,0.5807,0.5813,0.5813,0.582,0.5816,0.5798,0.5798,0.5797,0.5797,0,0.5769,0.5756,0.5788,0.5783,0.5783,0.5808,0.5805,0.5823,0.5817,0.5842,0.5847,0.5837,0.5857,0.5847,0.5868,0.5862,0.5907,0.5897,0.5905,0.5904,0.5938,0.5936,0.6048,0.6063,0.5955,0.5956,0.5957,0,0.5817,0.5839,0.5837,0.5848,0.5849,0.5867,0.5876,0.5859,0.587,0.5877,0.5895,0.5913,0.5927,0.5961,0.5957,0.5974,0.5966,0.6004,0.5968,0.5974,0.5969,0.5969,0.5972,0.6012,0.6013,0.6014,0.6015,0,0.5905,0.5898,0.5912,0.5924,0.5935,0.5944,0.5951,0.5961,0.5945,0.5958,0.5978,0.5989,0.601,0.6029,0.6044,0.6046,0.6029,0.6026,0.6035,0.6042,0.6046,0.6046,0.5927,0.6024,0.6023,0.6022,0.6022,0.6021,0.5972,0.5991,0.5993,0.6009,0.6012,0.6019,0.6037,0.6032,0.6048,0.6063,0.6053,0.6077,0.6082,0.61,0.6104,0.6124,0.6109,0.6122,0.6125,0.6129,0.6135,0.6041,0.6127,0.6126,0.6126,0.6126,0.6126,0,0.6061,0.606,0.6075,0.6086,0.6099,0.608,0.6087,0.61,0.6121,0.6126,0.614,0.6164,0.6183,0.618,0.6198,0.6214,0.6207,0.622,0.6219,0.6221,0.6146,0.6137,0.6225,0.6225,0.6225,0.6225,0.6225,0.6225,0.6109,0.614,0.6133,0.6167,0.6167,0.6189,0.6195,0.6203,0.6207,0.6234,0.6249,0.6247,0.625,0.6267,0.6285,0.6283,0.6292,0.6308,0.6305,0.6235,0.6226,0.6216,0.6208,0.631,0.631,0.6378,0.6379,0.6379]},{"header":{"parameterUnit":"m.s-1","parameterCategory":1,"la1":30.2991,"la2":30.254,"lo1":-89.0895,"lo2":-89.0444,"dy":0.0017,"dx":0.0017,"nx":28,"ny":28,"refTime":"2024-07-05T21:00:00:Z","depth":0,"parameterNumber":3,"parameterNumberName":"V-component_of_WINDS"},"data":[0,0,0,0,0,0,0,0,0,0,0,0,0,0,0,0,0,0,0,0,0,0,0,0,0,0,0,0,0,0,0,0,0,0,0,0,0,0,0,0,0,0,0,0,0,0,0,0,0,0,0,0,0,0,0,0,0,0,-1.471,-1.471,0,-1.4716,-1.4716,-1.4716,-1.4691,-1.469,-1.4689,-1.4689,-1.4699,-1.47,-1.4701,0,0,0,0,0,0,0,0,0,0,0,0,0,-1.4681,-1.4681,-1.471,-1.471,-1.471,-1.4716,-1.4716,-1.4716,-1.4691,-1.469,-1.4689,-1.4688,-1.4699,-1.47,-1.4701,0,0,0,0,0,0,0,0,0,0,0,0,0,-1.4691,-1.4681,-1.471,-1.4698,-1.4697,-1.4716,-1.4716,-1.4716,-1.4691,-1.469,-1.4689,-1.4688,-1.4698,-1.47,-1.4701,-1.4733,0,0,-1.4706,-1.4706,0,0,0,0,0,0,0,0,-1.469,-1.4692,-1.47,-1.4699,-1.4698,-1.4701,-1.4709,-1.4722,-1.4691,-1.4694,-1.4689,-1.4687,-1.4701,-1.4702,-1.4706,-1.4733,-1.4734,-1.4706,-1.4707,-1.4707,-1.4708,0,0,0,0,0,0,0,-1.469,-1.4692,-1.4713,-1.47,-1.4699,-1.4694,-1.4694,-1.4712,-1.4704,-1.4693,-1.4691,-1.4692,-1.47,-1.4705,-1.4706,-1.4734,-1.4706,-1.4707,-1.4708,-1.4709,-1.4789,-1.4791,0,0,0,0,0,0,-1.469,-1.4691,-1.4712,-1.4713,-1.4691,-1.4695,-1.4695,-1.4702,-1.4703,-1.4703,-1.4693,-1.4691,-1.4703,-1.4704,-1.4706,-1.4745,-1.4707,-1.4709,-1.471,-1.4788,-1.479,-1.4791,0,0,0,0,0,0,-1.4689,-1.4692,-1.4712,-1.4701,-1.4703,-1.4697,-1.4704,-1.4702,-1.4706,-1.4703,-1.4702,-1.4699,-1.4702,-1.4704,-1.4726,-1.4745,-1.4709,-1.4711,-1.4787,-1.4789,-1.479,-1.4822,0,0,0,0,0,0,-1.4689,-1.4692,-1.4703,-1.4702,-1.4704,-1.4731,-1.4705,-1.4703,-1.4709,-1.4706,-1.4708,-1.4708,-1.4701,-1.4724,-1.4728,-1.4746,-1.4712,-1.4785,-1.4787,-1.479,-1.4819,-1.4824,-1.4829,0,0,0,0,0,-1.4688,-1.4712,-1.4704,-1.4707,-1.4718,-1.4732,-1.4734,-1.4724,-1.471,-1.4722,-1.472,-1.4708,-1.4742,-1.4727,-1.4731,-1.475,-1.4784,-1.4787,-1.479,-1.4817,-1.4823,-1.4829,0,0,0,0,0,0,-1.4718,-1.4712,-1.4702,-1.4727,-1.473,-1.4728,-1.4743,-1.4732,-1.474,-1.4737,-1.4726,-1.4727,-1.4752,-1.4753,-1.4736,-1.4781,-1.4761,-1.4764,-1.478,-1.4786,-1.4791,-1.4791,-1.4713,0,0,0,0,0,-1.4727,-1.4738,-1.4733,-1.4755,-1.4757,-1.4749,-1.4755,-1.4748,-1.4751,-1.4753,-1.4752,-1.4757,-1.4769,-1.4777,-1.4788,-1.4818,-1.482,-1.4833,-1.4838,-1.4842,-1.4846,-1.4864,-1.487,-1.48,-1.48,-1.48,0,0,-1.4746,-1.4745,-1.4753,-1.4761,-1.4762,-1.4775,-1.4751,-1.4765,-1.4776,-1.4755,-1.4777,-1.4776,-1.4781,-1.4808,-1.482,-1.4809,-1.4866,-1.4846,-1.4849,-1.4851,-1.4868,-1.4874,-1.488,-1.4802,-1.4802,-1.4802,0,0,-1.4789,-1.4788,-1.4807,-1.4809,-1.4811,-1.4806,-1.481,-1.481,-1.4808,-1.4829,-1.4814,-1.4827,-1.4847,-1.4851,-1.4856,-1.49,-1.489,-1.4904,-1.4931,-1.4948,-1.4954,-1.4959,-1.4976,-1.4983,-1.4908,-1.4908,-1.4908,0,-1.4814,-1.4832,-1.4819,-1.4834,-1.4839,-1.482,-1.484,-1.4843,-1.4849,-1.4853,-1.4841,-1.4866,-1.4868,-1.4896,-1.4907,-1.4911,-1.4917,-1.4905,-1.4954,-1.4959,-1.4963,-1.498,-1.4986,-1.491,-1.4909,-1.4909,-1.4909,0,-1.4863,-1.4876,-1.4891,-1.4896,-1.4902,-1.492,-1.4911,-1.4919,-1.4911,-1.4908,-1.493,-1.4931,-1.4942,-1.4947,-1.494,-1.4975,-1.4969,-1.4955,-1.4935,-1.4972,-1.4987,-1.4993,-1.4912,-1.4912,-1.4911,-1.4911,0,0,-1.4927,-1.4923,-1.4929,-1.4932,-1.4932,-1.4943,-1.496,-1.4969,-1.4977,-1.4982,-1.4998,-1.5015,-1.5002,-1.5008,-1.5001,-1.5015,-1.5052,-1.5,-1.5,-1.5012,-1.5093,-1.5105,-1.5112,-1.5045,-1.5046,-1.5047,-1.5094,0,-1.497,-1.4998,-1.4987,-1.5017,-1.5029,-1.5011,-1.5026,-1.5029,-1.5026,-1.5037,-1.5034,-1.5048,-1.5029,-1.5033,-1.5046,-1.5045,-1.5069,-1.5041,-1.5061,-1.5062,-1.5063,-1.512,-1.5132,-1.5177,-1.5099,-1.51,-1.5101,0,-1.5025,-1.503,-1.5061,-1.506,-1.5065,-1.5079,-1.5087,-1.5097,-1.51,-1.5097,-1.5103,-1.5092,-1.5111,-1.5089,-1.5115,-1.5097,-1.5104,-1.5105,-1.5106,-1.511,-1.5085,-1.5127,-1.519,-1.5198,-1.511,-1.5109,-1.5109,0,-1.507,-1.5086,-1.5106,-1.5109,-1.5107,-1.5118,-1.5118,-1.5119,-1.5126,-1.5133,-1.5138,-1.5148,-1.5154,-1.5162,-1.5156,-1.514,-1.5184,-1.5161,-1.5184,-1.5184,-1.5196,-1.5196,-1.5263,-1.5197,-1.5197,-1.5197,-1.5197,0,-1.5121,-1.5141,-1.5127,-1.514,-1.5162,-1.5149,-1.5172,-1.5171,-1.5172,-1.5186,-1.517,-1.5184,-1.5172,-1.5185,-1.518,-1.5204,-1.5206,-1.5206,-1.5205,-1.5208,-1.5209,-1.5215,-1.5212,-1.5199,-1.5198,-1.5198,-1.5198,0,-1.5177,-1.5167,-1.5189,-1.5185,-1.5185,-1.5202,-1.52,-1.5212,-1.5208,-1.5225,-1.5228,-1.5222,-1.5236,-1.523,-1.5245,-1.5241,-1.5273,-1.5266,-1.5271,-1.5271,-1.5295,-1.5293,-1.537,-1.5381,-1.5306,-1.5307,-1.5307,0,-1.5211,-1.5226,-1.5223,-1.5231,-1.5231,-1.5243,-1.5249,-1.5237,-1.5245,-1.5249,-1.5262,-1.5275,-1.5284,-1.5308,-1.5306,-1.5318,-1.5313,-1.5339,-1.5315,-1.5319,-1.5316,-1.5316,-1.5319,-1.5345,-1.5346,-1.5347,-1.5347,0,-1.5273,-1.5268,-1.5276,-1.5284,-1.5291,-1.5297,-1.5302,-1.5309,-1.5297,-1.5306,-1.532,-1.5327,-1.5342,-1.5356,-1.5366,-1.5368,-1.5357,-1.5354,-1.5361,-1.5366,-1.5369,-1.537,-1.5287,-1.5353,-1.5353,-1.5352,-1.5352,-1.5352,-1.532,-1.5333,-1.5333,-1.5344,-1.5346,-1.535,-1.5362,-1.5358,-1.5369,-1.538,-1.5372,-1.5388,-1.5392,-1.5405,-1.5408,-1.5422,-1.5412,-1.5421,-1.5423,-1.5426,-1.543,-1.5365,-1.5424,-1.5423,-1.5423,-1.5423,-1.5423,0,-1.5384,-1.5382,-1.5392,-1.5398,-1.5407,-1.5393,-1.5397,-1.5406,-1.542,-1.5424,-1.5433,-1.5449,-1.5462,-1.5461,-1.5473,-1.5485,-1.548,-1.5488,-1.5489,-1.549,-1.5438,-1.5432,-1.5492,-1.5492,-1.5492,-1.5492,-1.5492,-1.5492,-1.5418,-1.5439,-1.5433,-1.5456,-1.5455,-1.547,-1.5474,-1.5478,-1.5481,-1.5499,-1.5509,-1.5507,-1.5509,-1.5522,-1.5533,-1.5533,-1.5539,-1.555,-1.5548,-1.55,-1.5493,-1.5487,-1.5481,-1.5551,-1.5551,-1.5599,-1.5599,-1.56]}]]